User: anonymous   Login
Location: Caltech
(34.1382°N, 118.1253°W)
Time: 11:45:43
(UTC-08:00)
Language:

Courier 1B - Orbit

View from above orbital plane
View from above orbital plane
View from above satellite
View from above satellite

Ground track
Ground track

The orbit data is extracted from the following two-line orbital elements,

1 00058U 60013A   17054.59188879  .00000079  00000-0 -94941-5 0  9994
2 00058  28.3270 112.5051 0165046 132.7598 228.6960 13.46307244775982
Epoch (UTC): 23 February 2017 14:12:19
Eccentricity: 0.0165046
inclination: 28.3270°
perigee height: 962 km
apogee height: 1209 km
right ascension of ascending node: 112.5051°
argument of perigee: 132.7598°
revolutions per day: 13.46307244
mean anomaly at epoch: 228.6960°
orbit number at epoch: 77598

The dashed part of the orbit path shows where the satellite is in the earth's shadow,  

DLR